Regional Weather Roundup
Issued by NWS Green Bay, WI

Home | Current Version | Previous Version | Text Only | Print | Product List | Glossary On
Versions: 1 2 3 4 5 6 7 8 9 10 11 12 13 14 15 16 17 18 19 20 21 22 23 24 25 26 27 28 29 30 31 32 33 34 35 36 37 38 39 40 41 42 43 44 45 46 47 48 49 50
000
ASUS43 KGRB 300311
RWRGRB

NORTH-CENTRAL AND NORTHEAST WISCONSIN REGIONAL WEATHER ROUNDUP
NATIONAL WEATHER SERVICE GREEN BAY WI
1000 PM CDT FRI APR 29 2016

WIZ005-009-010>012-018-019-300400-
NORTH CENTRAL WISCONSIN

CITY           SKY/WX    TMP DP  RH WIND       PRES   REMARKS
IRONWOOD         N/A     34  34 100 CALM      30.18F
MANITOWISH WTR CLEAR     42  30  61 N6        30.17R
ARBOR VITAE    CLEAR     45  30  56 NE7       30.16R
EAGLE RIVER    CLEAR     45  26  48 NE9G17    30.15S
LAND O LAKES   MOCLDY    46  28  50 NE8       30.18R
RHINELANDER    CLEAR     44  32  62 NE7       30.15R
PHILLIPS       PTCLDY    44  31  60 N9        30.15R
ANTIGO         CLEAR     42  32  68 CALM      30.15S
TOMAHAWK       CLEAR     39  36  87 CALM      30.14S
MERRILL        CLEAR     41  37  84 SE3       30.15R
$$

WIZ013-073-300400-
NORTHEAST WISCONSIN

CITY           SKY/WX    TMP DP  RH WIND       PRES   REMARKS
IRON MOUNTAIN  CLEAR     39  27  62 N7        30.16S
MARINETTE      CLEAR     46  28  49 CALM      30.16S
OCONTO         CLEAR     37  33  83 CALM      30.16R
$$

WIZ017-030-035>037-045-300400-
CENTRAL WISCONSIN

CITY           SKY/WX    TMP DP  RH WIND       PRES   REMARKS
MEDFORD        CLEAR     40  39  95 CALM      30.13R
WAUSAU         CLEAR     48  34  58 E6        30.13R
MOSINEE        CLEAR     46  34  61 E5        30.15R
MARSHFIELD     MOCLDY    48  36  63 CALM      30.12S
WISC RAPIDS    CLOUDY    49  34  56 E7        30.14S
STEVENS POINT  CLOUDY    46  35  66 E3        30.14F
WAUPACA        CLEAR     48  34  57 NE3       30.15S
SHAWANO        CLOUDY    47  32  55 CALM      30.16R
CLINTONVILLE   CLOUDY    43  32  65 CALM      30.15S
WAUTOMA        PTCLDY    43  36  76 CALM      30.14
$$

WIZ038-039-048-051-300400-
FOX VALLEY

CITY           SKY/WX    TMP DP  RH WIND       PRES   REMARKS
NWS GREEN BAY  CLEAR     45  34  65 SE3       30.16R
APPLETON       PTCLDY    48  28  46 E3        30.14R
OSHKOSH        CLEAR     45  31  58 E6        30.14R
FOND DU LAC    CLEAR     43  30  60 E6        30.14R
$$

WIZ022-050-052-300400-
EAST CENTRAL WISCONSIN

CITY           SKY/WX    TMP DP  RH WIND       PRES   REMARKS
EPHRAIM        FAIR      42  28  56 N6        30.16R
STURGEON BAY   CLEAR     43  28  56 CALM      30.19R
MANITOWOC      CLEAR     41  31  67 N3        30.17S
SHEBOYGAN      CLEAR     39  28  64 CALM      30.15S
$$

LMZ563-521-522-541>543-300400-
LAKESHORE

STATION/POSITION TIME  TEMP    WIND        PRES    VSBY  WAVE
                       AIR SEA DIR/SP/G                  HT/PER
                 (UTC) (F)     (DEG/KT/KT) (MB)    (MI)  (FT/S)
SHEBOYGAN LKSHOR 0300   43      30/  2/  3 1021.9R
KEWAUNEE LKSHORE 0200   44                 1020.6F
ALGOMA MARINA    0200           10/  7/  8   N/A
NORTHPORT PIER   0200   42     310/  4/  8 1021.3S
N MID LAKE BUOY  0250   43 38  100/  4/  8 1021.7F         0
CHAMBERS ISLAND  0240   40      CALM  /  2 1021.7S
MENOMINEE LKSHOR 0200   47                 1020.2R
$$



USA.gov is the U.S. government's official web portal to all federal, state and local government web resources and services.